Location: Bogis-Bossey
(46.3500°N, 6.1667°E)
Time: 18:39:03
(UTC+00:00)

Cosmos 1680 Rocket - Pass Details

Date: 17 August 2022
Orbit: 759 x 781 km, 74.1° (Epoch: 01 October)

Event Time Altitude Azimuth Distance (km) Brightness Sun altitude
Exits shadow 20:16:28 22° 148° (SSE) 1,621 4.6 -15.1°
Maximum altitude 20:18:56 33° 101° (ESE) 1,253 4.1 -15.4°
Drops below altitude 10° 20:23:34 10° 39° (NE) 2,298 6.0 -16.0°
Sets 20:26:07 0° 30° (NNE) 3,229 6.9 -16.4°
